Regional Weather Roundup
Issued by NWS

Home | Current Version | Previous Version | Graphics & Text | Print | Product List | Glossary On
Versions: 1 2 3 4 5 6 7 8 9 10 11 12 13 14 15 16 17 18 19 20 21 22 23 24 25 26 27 28 29 30 31 32 33 34 35 36 37 38 39 40 41 42 43 44 45 46 47 48 49 50
000
ASUS43 KBIS 240159
RWRND

NORTH DAKOTA REGIONAL WEATHER ROUNDUP
NATIONAL WEATHER SERVICE BISMARCK ND
900 PM CDT TUE SEP 23 2014

NOTE: "FAIR" INDICATES FEW OR NO CLOUDS BELOW 12,000 FEET WITH NO
SIGNIFICANT WEATHER AND/OR OBSTRUCTIONS TO VISIBILITY.


NDZ001>003-009>011-017-240300-
NORTHWEST NORTH DAKOTA

CITY           SKY/WX    TMP DP  RH WIND       PRES   REMARKS
WILLISTON      CLEAR     64  52  64 SE3       29.82S
MINOT          CLEAR     62  56  80 SE12      29.88R
$$

NDZ018>021-031>035-040>046-240300-
SOUTHWEST NORTH DAKOTA

CITY           SKY/WX    TMP DP  RH WIND       PRES   REMARKS
BISMARCK       CLOUDY    60  57  89 SE14      29.94R
GARRISON         N/A     61  57  87 SE10      29.90R
HETTINGER ARPT PTCLDY    66  57  72 SE10      29.92R
$$

NDZ004>008-012>016-024-026-027-054-240300-
NORTHEAST NORTH DAKOTA

CITY           SKY/WX    TMP DP  RH WIND       PRES   REMARKS
GRAND FORKS    MOCLDY    64  51  62 S13       30.01R
DEVILS LAKE    CLOUDY    61  52  72 S15       29.96S
$$

NDZ022-023-025-028>030-036>039-047>053-240300-
SOUTHEAST NORTH DAKOTA

CITY           SKY/WX    TMP DP  RH WIND       PRES   REMARKS
FARGO          CLOUDY    64  52  64 S12G24    30.03S
$$




USA.gov is the U.S. government's official web portal to all federal, state and local government web resources and services.